Regional Weather Roundup
Issued by NWS Goodland, KS

Home | Current Version | Previous Version | Text Only | Print | Product List | Glossary Off
Versions: 1 2 3 4 5 6 7 8 9 10 11 12 13 14 15 16 17 18 19 20 21 22 23 24 25 26 27 28 29 30 31 32 33 34 35 36 37 38 39 40 41 42 43 44 45 46 47 48 49 50

000
ASUS43 KGLD 211508
RWRGLD

GOODLAND FORECAST AREA HOURLY WEATHER ROUNDUP
NATIONAL WEATHER SERVICE GOODLAND KS
900 AM MDT FRI JUL 21 2017

...OFFICIAL OBSERVATIONS...

CITY           SKY/WX    TMP DP  RH WIND       PRES   REMARKS
GOODLAND KS    SUNNY     83  65  54 NW8       29.98R
HILL CITY KS   SUNNY     89  61  38 SW10      29.89F
IMPERIAL NEB   SUNNY     86  63  45 N12       29.94R
MCCOOK NEB     SUNNY     85  70  60 W7        29.88S
AKRON CO       SUNNY     82  53  36 W7        30.07R
BURLINGTON CO  SUNNY     82  62  50 NW5       30.03R
LIMON CO       SUNNY     78  58  49 NW7       30.14S
$$

...UNOFFICIAL OBSERVATIONS...

CITY           SKY/WX    TMP DP  RH WIND       PRES   REMARKS
LENORA KS        N/A     84  32  15 MISG        N/A
NORTON KS      SUNNY     88  54  31 SW14      29.86S
SHARON SPRINGS   N/A     83  63  50 CALM        N/A
TRIBUNE KS     SUNNY     86  59  39 S7        30.01
TRENTON NEB      N/A     88  32  13 CALM        N/A
KIT CARSON CO    N/A     83  60  45 MISG        N/A
YUMA CO        FAIR      81  52  36 N3        30.02S
$$




USA.gov is the U.S. government's official web portal to all federal, state and local government web resources and services.